Location: Unspecified
(50.1700°N, 6.8600°E)
Time: 05:22:45
(UTC+00:00)

Cosmos 304 Rocket - Pass Details

Date: 24 January 2019
Orbit: 680 x 687 km, 74.0° (Epoch: 22 October)

Event Time Altitude Azimuth Distance (km) Brightness Sun altitude
Exits shadow 06:36:31 - 330° (NNW) 2,884 6.5 -6.7°
Reaches altitude 10° 06:38:28 10° 324° (NW) 2,141 5.8 -6.5°
Maximum altitude 06:42:59 42° 255° (WSW) 984 4.3 -5.8°
Drops below altitude 10° 06:47:29 10° 185° (S) 2,129 6.6 -5.1°
Sets 06:49:53 0° 178° (S) 3,041 7.5 -4.8°
